Temp
70 70 68 68 68 68 69 72 72 71 70 70 70 70 70 70 71 71 69 69 68 69 70 70 70 70 70 70 70 69 69 68 65 63 65 65 65 65 64 66 67 67 68
71 70 69 70 70 70 71 72 71 70 70 70 70 69 70 70 70 70 70 71 70 69 70 69 70 70 69 70 69 69 68 68 66 63 63 63 63 63 62 62 63 66 68
70 70 70 71 71 71 71 71 70 70 69 69 69 69 69 70 69 70 70 70 70 70 70 69 70 70 69 69 69 68 68 66 65 64 62 61 62 62 61 62 62 64 66
70 70 70 71 71 71 71 70 70 70 69 68 69 70 69 70 70 70 69 69 69 69 70 70 70 69 69 69 68 67 65 64 63 62 62 61 62 62 61 59 59 62 62
70 70 71 71 71 71 70 70 70 70 70 70 69 70 69 69 71 69 69 68 68 68 68 69 68 68 67 68 67 65 64 63 62 61 60 60 60 60 60 60 59 59 62
70 70 71 71 71 70 70 70 70 70 70 69 69 69 67 70 64 63 68 68 68 68 67 67 66 68 67 64 65 64 66 65 63 61 60 60 61 61 62 61 59 59 57
70 70 70 71 70 70 71 70 70 69 70 69 68 68 68 68 62 61 64 70 68 68 67 67 67 69 66 68 63 63 63 63 64 66 62 62 61 63 63 60 60 60 62
69 70 70 70 70 70 70 70 69 70 69 69 68 68 68 68 61 59 62 69 68 68 68 68 67 67 66 67 67 65 65 65 66 68 67 66 67 64 64 64 63 61 61
68 69 70 70 69 69 68 68 68 68 67 68 69 68 68 68 58 58 60 67 67 67 68 68 68 67 61 59 66 66 65 65 62 58 60 59 59 59 64 64 60 59 57
65 65 65 66 66 66 66 66 66 65 65 66 67 69 65 69 59 56 59 68 66 67 67 67 61 66 57 56 66 65 64 65 65 64 64 61 60 61 60 67 65 60 59
63 64 64 65 65 65 64 65 65 65 65 65 65 67 68 68 68 55 54 67 69 68 67 65 67 57 53 52 56 65 65 65 62 65 65 63 63 63 64 66 66 65 60
64 64 64 64 64 64 63 64 63 63 64 64 65 66 67 67 60 57 54 58 61 67 65 66 65 53 50 50 53 55 53 59 65 64 63 62 60 61 63 64 65 66 67
60 59 61 62 63 64 62 62 61 62 62 63 63 63 63 64 64 55 52 55 56 63 65 62 55 50 48 51 51 51 52 65 65 63 63 64 64 64 63 62 63 64 64
58 58 59 59 59 62 62 62 62 63 63 63 62 61 63 62 63 60 57 57 58 61 59 59 58 57 55 58 57 56 63 66 65 63 65 65 62 63 63 64 60 60 60
57 57 57 58 58 58 60 61 59 60 56 58 62 62 62 64 64 57 56 60 61 60 61 60 59 59 58 59 58 57 57 58 59 60 60 60 60 61 60 62 61 61 60
57 57 56 56 58 58 59 60 49 48 45 43 42 48 61 55 49 48 48 49 50 52 61 59 59 58 59 59 59 57 56 55 56 57 58 58 57 58 61 59 61 59 58
57 57 57 56 57 57 58 59 59 53 46 44 43 43 42 43 46 47 46 46 48 51 62 62 61 59 59 59 59 58 57 57 58 57 57 57 56 58 58 58 56 57 57
59 53 57 57 57 57 58 59 60 58 56 56 49 44 41 42 44 43 43 47 52 53 62 62 61 61 59 58 58 59 60 59 59 58 58 58 58 58 58 57 57 56 56
57 57 57 58 58 57 58 59 60 60 59 58 58 52 50 46 46 45 44 59 60 58 60 60 60 59 59 59 59 58 58 57 56 55 55 55 56 56 55 54 53 51 52
57 55 55 56 57 58 59 59 59 59 59 59 57 57 58 57 57 57 58 58 58 59 59 58 58 58 58 57 56 55 55 54 54 54 53 54 54 54 55 55 56 55 56
56 56 55 57 57 58 58 59 59 59 59 58 57 55 45 57 57 57 58 58 59 58 58 57 57 56 56 55 54 54 54 54 55 55 55 55 55 54 55 55 55 57 58
56 56 57 56 56 56 58 59 60 60 61 60 59 56 48 59 57 56 56 56 57 56 56 55 55 55 56 55 56 56 55 55 55 56 56 57 57 56 56 56 57 57 57
56 56 56 56 57 55 57 58 59 59 60 59 57 56 57 56 55 54 54 55 54 53 54 53 52 54 55 55 56 57 57 55 54 56 55 56 56 55 56 55 55 54 54
57 58 57 57 58 57 58 58 59 53 59 58 58 57 56 54 53 53 52 52 52 51 51 51 52 52 51 51 50 51 51 51 52 53 54 55 54 52 55 54 53 53 53
58 57 56 56 57 57 57 57 57 58 57 56 57 56 55 55 54 55 55 53 50 48 47 47 49 50 50 49 49 48 37 34 47 43 53 54 54 53 54 54 53 53 52
55 55 55 55 56 57 56 55 55 56 55 56 57 56 55 53 51 53 55 54 52 51 50 50 49 49 49 49 47 37 33 33 42 39 52 53 52 52 53 52 51 53 52
MSLP
1006.10 1006.57 1007.32 1008.02 1008.20 1008.60 1008.53 1008.55 1008.66 1009.13 1009.39 1009.60 1009.80 1010.03 1010.42 1010.68 1010.99 1011.30 1011.60 1011.94 1012.38 1012.69 1012.94 1013.12 1013.24 1013.40 1013.46 1013.57 1013.77 1014.05 1014.14 1014.49 1014.87 1015.43 1015.57 1015.89 1015.83 1015.90 1016.32 1016.57 1016.77 1016.86 1016.85
1006.07 1006.74 1007.23 1007.67 1007.75 1007.98 1008.24 1008.29 1008.62 1008.68 1008.97 1009.39 1009.61 1009.50 1010.05 1010.35 1010.67 1010.93 1011.42 1011.53 1011.88 1012.27 1012.54 1012.86 1012.90 1013.07 1013.14 1013.28 1013.51 1013.60 1013.84 1014.03 1014.43 1014.98 1015.48 1015.79 1015.93 1016.09 1016.37 1016.36 1016.54 1016.78 1017.03
1006.14 1006.88 1006.84 1007.12 1007.27 1007.45 1007.76 1008.18 1008.59 1008.88 1009.03 1009.33 1009.75 1010.06 1010.17 1010.14 1010.53 1010.73 1010.92 1011.21 1011.57 1011.81 1012.16 1012.55 1012.66 1012.85 1012.98 1013.13 1013.27 1013.48 1013.57 1013.82 1014.11 1014.43 1014.92 1015.48 1015.77 1016.17 1016.73 1016.97 1017.23 1017.01 1017.22
1006.11 1006.34 1006.47 1006.48 1006.84 1007.20 1007.74 1007.98 1008.33 1008.88 1009.12 1009.14 1009.43 1009.79 1010.15 1010.33 1010.10 1010.42 1010.91 1011.12 1011.28 1011.50 1011.58 1012.08 1012.42 1012.59 1012.75 1012.96 1013.18 1013.34 1013.50 1013.65 1014.06 1014.37 1014.71 1015.17 1015.52 1016.06 1016.43 1016.86 1017.23 1017.29 1017.58
1005.59 1006.03 1006.11 1006.08 1006.36 1007.16 1007.57 1007.91 1008.12 1008.56 1008.95 1008.99 1009.23 1009.51 1009.78 1010.11 1010.39 1010.35 1010.21 1010.53 1011.09 1011.15 1011.26 1011.34 1011.83 1012.23 1012.60 1012.86 1013.09 1013.23 1013.43 1013.60 1013.76 1014.09 1014.41 1014.90 1015.24 1015.70 1016.04 1016.59 1017.06 1017.44 1017.62
1005.17 1005.70 1006.09 1006.22 1006.50 1006.89 1007.30 1007.54 1007.93 1008.23 1008.55 1008.69 1009.09 1009.21 1009.48 1009.74 1009.97 1010.35 1010.31 1010.16 1010.48 1010.85 1011.09 1011.32 1011.33 1011.54 1012.25 1012.46 1012.76 1013.04 1013.30 1013.49 1013.55 1013.75 1014.23 1014.50 1014.78 1015.08 1015.65 1016.22 1016.83 1017.34 1017.69
1004.64 1005.26 1006.18 1006.39 1006.80 1007.01 1007.21 1007.27 1007.62 1007.80 1007.93 1008.22 1008.73 1009.22 1009.48 1009.51 1009.53 1009.86 1010.26 1010.45 1010.37 1010.42 1010.44 1010.90 1011.46 1011.39 1011.44 1011.98 1012.44 1012.91 1013.26 1013.66 1013.49 1013.49 1013.83 1014.14 1014.46 1014.72 1015.20 1015.87 1016.42 1016.80 1017.09
1004.83 1005.32 1006.04 1006.41 1007.07 1007.10 1007.19 1007.20 1007.46 1007.71 1007.97 1008.12 1008.48 1008.89 1009.19 1009.39 1009.54 1009.75 1009.94 1010.22 1010.32 1010.36 1010.38 1010.53 1010.99 1011.36 1011.59 1011.43 1012.06 1012.56 1012.99 1013.39 1013.45 1013.31 1013.49 1013.67 1013.83 1014.27 1014.57 1015.02 1015.71 1016.39 1016.93
1005.02 1005.72 1006.13 1006.70 1007.15 1007.24 1007.14 1007.14 1007.44 1007.85 1008.18 1008.35 1008.27 1008.56 1008.76 1008.89 1009.08 1009.41 1009.82 1010.07 1010.07 1010.19 1010.16 1010.25 1010.40 1011.05 1011.47 1011.45 1011.64 1012.17 1012.57 1012.89 1013.11 1013.41 1013.43 1013.68 1013.87 1014.22 1014.27 1014.74 1015.35 1015.95 1016.37
1006.26 1006.55 1006.65 1006.72 1007.12 1007.36 1007.35 1007.49 1007.67 1008.15 1008.18 1008.22 1008.13 1008.12 1008.17 1008.39 1008.57 1008.77 1009.17 1009.38 1009.60 1009.74 1009.92 1010.01 1010.28 1010.40 1011.04 1011.46 1011.47 1011.77 1012.21 1012.52 1012.82 1013.30 1013.85 1013.69 1013.81 1014.29 1014.44 1014.46 1014.91 1015.27 1015.76
1007.36 1007.30 1006.96 1006.99 1007.08 1007.19 1007.30 1007.42 1007.58 1007.68 1007.64 1007.58 1007.49 1007.35 1007.40 1007.48 1007.61 1007.97 1008.27 1008.38 1008.61 1009.22 1009.43 1009.58 1009.90 1010.08 1010.45 1011.03 1011.18 1011.52 1011.67 1012.07 1012.73 1012.94 1013.40 1013.73 1013.90 1014.19 1014.37 1014.41 1014.50 1014.82 1015.18
1007.50 1007.71 1007.80 1007.30 1006.67 1006.99 1007.24 1007.20 1007.30 1007.41 1007.23 1007.09 1007.02 1006.71 1006.45 1006.20 1006.17 1006.31 1006.98 1007.39 1007.57 1007.98 1008.48 1008.82 1009.19 1009.66 1010.09 1010.66 1011.01 1011.36 1011.71 1011.92 1012.35 1012.78 1013.09 1013.44 1013.61 1013.85 1014.00 1014.22 1014.43 1014.56 1014.74
1008.28 1008.16 1007.85 1007.38 1007.07 1006.85 1007.22 1007.63 1007.48 1007.13 1006.90 1006.48 1006.42 1006.11 1005.79 1005.44 1005.13 1005.19 1005.58 1006.44 1006.80 1007.33 1007.57 1008.02 1008.70 1009.22 1009.66 1010.23 1010.53 1011.04 1011.65 1011.96 1012.01 1012.35 1012.63 1012.95 1013.12 1013.38 1013.77 1014.09 1014.19 1014.44 1014.70
1008.28 1008.39 1008.12 1007.59 1007.33 1007.33 1007.36 1007.63 1007.27 1006.89 1006.49 1006.41 1006.21 1005.62 1005.20 1004.61 1004.19 1004.56 1005.11 1005.93 1006.57 1007.06 1007.74 1008.45 1008.62 1008.98 1009.25 1009.73 1010.29 1010.82 1011.08 1011.27 1011.52 1011.81 1012.19 1012.54 1012.85 1013.11 1013.40 1013.73 1013.96 1014.14 1014.39
1008.56 1008.35 1008.01 1007.60 1007.47 1007.60 1007.51 1007.44 1007.20 1006.74 1006.87 1006.58 1006.05 1005.44 1004.84 1004.38 1003.88 1004.40 1004.75 1005.39 1005.61 1006.11 1007.38 1008.43 1008.67 1008.86 1009.15 1009.49 1009.96 1010.35 1010.69 1010.97 1011.44 1011.80 1012.01 1012.34 1012.55 1012.78 1013.07 1013.23 1013.67 1014.00 1014.24
1008.25 1008.25 1008.28 1008.26 1008.22 1007.89 1007.37 1007.16 1007.16 1006.71 1006.83 1006.51 1006.06 1005.69 1004.59 1004.01 1003.62 1003.92 1004.07 1004.28 1004.83 1005.65 1006.63 1007.28 1007.93 1008.23 1008.47 1008.98 1009.51 1010.01 1010.35 1010.60 1011.12 1011.79 1011.92 1012.15 1012.40 1012.65 1012.85 1013.26 1013.32 1013.88 1014.09
1008.70 1008.61 1008.33 1008.71 1008.52 1008.11 1007.31 1007.20 1006.91 1006.87 1006.77 1006.03 1005.61 1004.95 1004.87 1004.58 1003.85 1004.02 1004.57 1004.36 1004.54 1005.44 1005.55 1005.89 1006.77 1007.43 1007.59 1008.42 1008.96 1009.20 1009.48 1010.08 1010.66 1011.31 1011.65 1011.73 1011.93 1012.25 1013.07 1013.11 1013.19 1013.69 1013.94
1008.56 1008.40 1008.84 1008.74 1008.64 1008.33 1008.09 1007.60 1007.15 1006.91 1006.67 1006.02 1005.69 1005.61 1004.96 1004.24 1004.07 1004.37 1004.79 1005.39 1005.80 1005.55 1005.62 1005.39 1005.99 1006.66 1007.13 1007.51 1007.89 1008.54 1009.02 1009.61 1010.34 1010.79 1011.24 1011.67 1011.92 1012.02 1012.91 1013.19 1013.19 1013.40 1013.96
1009.05 1009.15 1009.09 1008.91 1008.56 1008.05 1008.03 1007.61 1007.61 1007.85 1006.44 1005.60 1005.55 1005.25 1005.07 1005.21 1004.70 1004.53 1004.94 1005.20 1005.27 1005.44 1005.28 1005.51 1005.73 1006.04 1006.51 1007.18 1007.53 1008.33 1008.94 1009.72 1010.40 1011.11 1011.58 1011.86 1012.11 1012.18 1012.84 1013.36 1013.51 1013.81 1014.14
1009.49 1009.31 1008.94 1008.66 1008.36 1008.07 1007.96 1007.86 1007.70 1007.16 1006.28 1005.98 1005.42 1005.51 1005.15 1005.29 1005.52 1004.97 1004.95 1005.14 1005.10 1005.11 1005.27 1006.04 1005.94 1006.42 1006.88 1007.48 1008.23 1008.71 1009.62 1010.13 1010.93 1011.57 1012.13 1012.57 1012.78 1012.92 1013.21 1013.52 1013.93 1014.08 1014.22
1009.56 1009.17 1008.76 1008.65 1008.38 1008.22 1007.54 1007.59 1007.47 1006.69 1006.30 1006.40 1006.23 1006.07 1005.64 1005.80 1005.73 1005.34 1005.68 1005.85 1005.64 1005.60 1006.03 1006.67 1007.14 1007.72 1007.68 1008.21 1008.84 1009.68 1010.33 1011.08 1011.65 1012.01 1012.37 1012.80 1013.06 1013.25 1013.54 1013.84 1014.13 1014.33 1014.39
1009.48 1008.96 1008.68 1008.53 1007.45 1007.58 1007.37 1006.79 1007.04 1006.78 1006.49 1006.29 1006.26 1006.22 1005.95 1006.06 1006.33 1006.15 1006.28 1006.50 1006.54 1006.75 1007.25 1007.63 1007.96 1008.50 1008.69 1009.18 1009.70 1010.21 1010.75 1011.23 1011.73 1012.04 1012.35 1012.67 1013.15 1013.59 1013.77 1014.00 1014.38 1014.59 1014.55
1008.31 1007.81 1007.86 1007.60 1007.15 1006.60 1006.61 1006.36 1006.63 1007.01 1006.62 1006.68 1006.64 1006.42 1006.28 1006.68 1006.97 1007.05 1006.95 1007.33 1007.76 1008.05 1008.43 1008.62 1009.03 1009.68 1010.16 1010.33 1010.61 1010.86 1011.31 1011.89 1012.24 1012.36 1012.58 1012.89 1013.15 1013.39 1013.64 1014.05 1014.51 1014.86 1015.03
1007.64 1007.55 1007.37 1006.99 1006.40 1006.17 1006.42 1006.53 1006.73 1007.08 1006.83 1006.96 1007.06 1006.86 1006.98 1007.36 1007.41 1007.59 1007.92 1008.34 1008.84 1009.38 1009.87 1010.28 1010.56 1010.76 1011.11 1011.39 1011.71 1012.05 1012.29 1012.35 1012.54 1012.91 1012.93 1013.11 1013.42 1013.66 1013.91 1014.34 1014.61 1014.83 1015.16
1007.02 1007.12 1007.01 1006.72 1006.42 1006.49 1006.71 1006.94 1007.20 1007.10 1007.17 1007.22 1007.43 1007.41 1007.82 1008.22 1008.35 1008.70 1008.91 1009.48 1009.76 1009.88 1010.40 1010.82 1011.33 1011.70 1012.00 1012.05 1012.29 1012.59 1012.96 1013.08 1012.70 1013.05 1013.36 1013.57 1013.93 1014.13 1014.39 1014.56 1014.82 1014.91 1014.99
1007.62 1007.15 1007.36 1007.36 1007.46 1007.52 1007.53 1007.55 1007.54 1007.53 1007.64 1007.50 1007.71 1007.93 1008.29 1008.86 1009.24 1009.59 1009.98 1010.26 1010.68 1011.16 1011.39 1011.65 1012.01 1012.30 1012.72 1012.95 1012.78 1013.03 1013.48 1013.61 1013.28 1013.58 1013.58 1013.83 1014.24 1014.44 1014.54 1014.68 1014.83 1014.83 1015.04
Wind_Speed
11 9 7 6 6 6 6 5 5 5 6 6 5 5 6 6 6 5 5 6 5 5 5 5 6 5 4 4 4 4 6 5 5 1 2 2 2 6 4 4 4 4 4
8 7 8 6 6 6 5 4 4 5 5 5 6 7 7 6 6 7 7 6 7 6 6 6 6 4 5 4 3 6 5 6 4 4 2 2 1 3 3 4 3 3 4
6 7 7 7 6 6 6 5 5 5 5 5 4 4 5 6 6 5 5 6 6 6 6 6 5 4 3 3 4 5 5 3 4 4 4 2 2 3 3 3 3 4 5
7 9 9 9 7 6 5 5 5 5 5 5 5 5 5 5 7 7 6 5 6 6 6 5 4 5 5 4 4 4 2 3 3 2 2 2 2 3 3 3 2 2 3
11 9 9 6 6 5 5 5 5 5 5 6 6 5 4 4 4 7 8 8 7 7 6 6 5 5 6 5 3 3 4 4 4 4 3 2 3 3 4 3 2 2 1
10 8 5 6 6 8 8 7 7 7 7 6 7 7 7 5 6 8 7 7 8 7 6 5 5 6 5 4 7 8 7 6 5 3 2 3 4 4 4 5 3 3 2
8 7 5 5 6 7 7 7 8 9 7 7 6 5 6 6 10 11 9 5 7 7 7 6 5 4 7 4 5 7 6 4 3 5 5 5 5 6 7 6 4 2 2
6 5 5 5 6 6 6 7 7 5 7 6 5 5 5 6 8 10 11 7 6 6 7 8 7 6 6 8 7 6 6 6 5 4 6 6 6 8 8 6 6 5 4
4 3 1 2 4 4 6 7 5 3 1 1 2 5 6 8 10 12 9 6 6 7 7 8 8 7 8 10 8 7 5 4 3 5 5 4 6 7 7 7 6 6 2
7 5 4 4 3 2 2 2 2 1 1 1 3 5 8 10 11 15 12 6 8 6 6 7 10 9 11 11 8 8 6 5 5 4 4 4 5 6 9 7 7 6 3
5 4 5 4 1 2 3 0 1 3 4 5 6 7 9 10 12 15 17 9 8 7 6 5 5 11 12 13 9 8 7 7 6 6 4 3 4 5 5 6 6 5 4
4 4 3 3 3 2 4 7 5 4 6 6 7 9 8 11 17 18 21 18 13 10 8 6 5 10 10 11 9 7 9 7 5 5 4 4 4 5 5 6 6 5 3
6 7 7 7 7 5 4 6 6 7 7 8 7 8 9 10 12 17 20 20 14 9 6 7 8 10 10 8 9 8 9 5 6 5 5 5 4 4 5 4 5 6 5
7 5 5 6 7 4 2 4 6 5 5 6 7 8 8 7 6 6 6 9 10 7 8 6 7 7 7 5 6 6 5 6 6 5 6 4 3 4 5 4 3 4 3
5 6 6 5 6 7 6 5 4 4 4 6 7 7 7 5 4 9 9 8 9 9 9 4 3 3 4 4 4 5 5 4 3 2 3 3 3 3 3 4 3 3 3
8 7 6 5 4 4 6 5 3 5 3 2 6 3 5 7 12 16 19 17 15 14 7 4 4 4 5 6 6 6 5 7 5 4 3 3 3 3 3 2 2 2 3
3 4 4 5 6 6 6 6 7 3 3 8 14 9 9 10 7 6 9 12 16 15 9 7 7 7 7 7 6 7 8 6 5 4 4 5 5 4 3 3 3 2 2
5 5 3 4 4 4 5 6 5 4 3 3 4 7 11 10 2 2 6 7 3 4 4 5 7 6 7 8 7 5 5 6 5 4 4 3 3 5 4 2 3 2 2
5 4 4 4 4 3 4 4 4 4 3 3 3 3 4 7 7 7 10 4 4 4 2 2 4 5 6 5 7 4 6 6 5 4 3 4 2 4 5 4 4 6 5
4 6 5 4 5 4 3 4 4 2 3 4 4 4 4 5 5 6 5 4 4 5 7 6 6 5 8 8 7 7 7 7 6 5 4 4 4 4 4 6 5 6 5
4 5 6 6 5 5 4 4 4 3 2 3 4 4 5 3 4 4 4 4 4 6 7 6 7 5 7 8 8 7 7 6 6 7 6 5 5 5 4 4 4 3 4
4 5 5 5 4 4 5 4 3 2 1 0 3 4 10 5 5 6 6 6 7 8 6 7 8 7 7 7 7 8 7 7 6 5 5 5 5 4 4 4 3 4 4
5 5 6 5 5 4 4 3 3 2 1 4 4 4 6 6 7 7 8 7 8 8 7 8 8 7 7 7 7 6 7 6 5 4 6 6 5 4 4 4 4 3 2
3 4 5 5 3 2 2 3 1 2 4 4 4 6 6 5 6 8 7 7 8 8 7 7 6 9 8 8 7 6 5 5 4 4 5 5 5 5 4 4 3 3 3
6 6 6 5 4 4 3 3 2 4 4 4 6 6 6 5 6 7 8 8 7 8 8 7 6 9 10 10 9 8 5 4 6 5 4 5 6 6 4 3 3 3 3
6 7 6 5 3 2 3 3 4 5 4 6 7 6 7 6 5 6 6 8 8 7 8 7 8 10 9 7 7 7 4 4 6 6 5 5 5 4 4 4 4 2 2
Wind_Direction
153 164 155 180 187 189 189 199 176 176 176 173 171 159 171 163 161 164 164 163 182 183 195 202 218 217 224 228 228 221 218 189 222 154 185 185 161 136 110 108 104 88 66
153 156 169 183 178 183 198 195 194 180 168 175 176 163 171 173 175 170 178 175 183 193 200 199 221 207 228 239 246 256 241 210 187 168 152 155 133 120 124 109 97 79 79
148 172 167 188 188 191 193 190 188 173 173 169 165 175 180 171 172 181 178 176 184 193 190 206 220 202 238 237 244 253 237 186 181 160 151 139 118 127 104 80 98 88 77
181 182 183 190 187 192 202 184 176 187 180 171 179 189 198 197 178 174 182 182 184 191 180 195 203 208 230 243 244 250 212 158 147 123 114 129 127 133 127 133 132 110 142
184 190 200 181 164 181 190 186 188 185 195 194 186 195 193 189 204 186 179 172 187 186 181 171 184 205 228 230 196 190 172 162 154 165 142 145 150 148 164 142 133 135 110
175 191 188 178 177 192 196 186 189 194 203 192 201 198 188 202 205 210 186 172 182 188 187 197 178 180 193 205 196 182 186 176 171 149 166 182 179 152 142 154 121 145 193
164 173 190 189 200 199 200 188 201 204 197 200 203 205 217 216 200 202 205 196 189 194 180 179 199 186 168 165 156 167 182 202 218 188 179 188 170 172 148 146 156 138 146
165 160 186 185 208 203 199 205 217 206 216 209 204 204 220 233 216 211 204 204 208 204 195 186 189 183 192 159 160 164 183 209 214 192 208 203 189 165 173 168 165 136 115
107 141 113 209 215 200 209 213 216 241 309 274 215 221 223 239 212 214 187 197 206 215 205 196 187 190 188 165 162 175 177 197 208 237 210 213 171 169 164 140 160 156 152
47 64 64 39 9 294 295 3 65 76 144 249 273 242 236 244 223 209 192 197 211 209 209 205 197 191 172 179 176 173 186 200 178 164 194 120 164 182 176 192 171 174 133
28 25 40 26 3 341 322 226 234 270 257 245 242 238 237 232 238 220 202 195 203 203 205 195 207 194 176 182 183 178 186 156 180 171 158 142 149 164 185 201 183 177 154
57 33 9 359 4 339 311 300 286 261 272 273 280 276 258 248 232 212 206 211 187 191 199 196 182 183 179 184 179 187 163 160 162 167 168 178 180 184 191 193 196 199 179
82 50 26 13 7 357 310 281 273 253 255 269 260 266 269 261 246 212 192 205 199 193 183 178 161 161 160 163 185 187 167 195 177 183 198 200 190 175 173 182 194 204 216
58 41 19 15 1 345 304 273 267 270 267 258 259 257 269 263 237 175 170 188 210 177 145 150 155 151 150 139 142 172 193 191 198 201 203 187 147 166 191 189 179 186 215
40 26 18 20 8 343 317 294 270 257 259 265 264 248 254 262 197 165 165 179 178 176 152 145 166 156 153 160 175 174 159 155 164 163 159 168 170 168 181 177 180 175 214
22 15 1 349 336 322 332 313 348 286 287 294 288 298 294 260 180 182 178 173 164 161 160 162 190 183 182 184 184 178 171 164 167 196 190 184 208 199 184 159 143 198 209
14 345 355 347 342 340 343 334 342 256 358 42 6 350 12 291 285 191 195 178 169 162 183 181 204 196 189 184 193 190 174 167 157 178 202 207 175 177 194 179 149 182 214
355 343 335 321 326 330 335 329 333 341 332 2 15 27 359 1 264 154 158 130 145 261 196 193 207 204 196 182 168 161 140 140 159 163 155 168 155 147 171 176 152 122 134
346 329 322 308 300 308 315 332 338 316 359 38 30 31 17 357 41 128 161 231 189 192 152 134 170 145 128 117 100 115 104 104 102 97 86 88 96 97 109 102 92 107 112
321 303 306 321 320 323 319 324 313 316 16 10 26 27 22 33 24 41 41 51 60 104 105 77 67 85 102 103 101 95 94 86 94 94 86 89 81 88 110 111 124 124 126
305 304 297 307 299 296 302 291 286 320 6 15 23 4 357 22 59 50 47 49 66 65 82 94 92 98 92 92 97 104 106 109 116 121 122 120 124 116 113 117 133 145 140
268 271 283 279 284 279 286 288 266 303 225 50 42 25 43 62 51 54 61 58 65 66 64 81 76 67 73 90 107 113 112 110 109 114 113 119 123 128 129 128 143 138 121
299 308 299 283 278 298 302 289 202 198 97 37 22 51 64 63 62 58 64 69 69 64 56 62 70 74 72 75 75 92 106 105 100 111 119 121 120 120 120 130 137 127 136
305 313 317 310 316 344 1 323 236 147 119 102 74 74 63 66 82 86 80 79 73 67 65 64 70 93 92 83 77 78 87 96 91 92 104 106 102 110 122 132 137 130 143
356 354 355 351 18 37 42 50 86 113 109 108 106 90 82 74 73 83 99 91 89 99 95 96 93 100 95 98 99 96 84 62 98 106 115 116 116 119 123 129 146 139 142
360 14 18 19 38 44 80 87 80 89 107 108 107 103 103 87 80 99 104 107 107 101 102 93 96 102 106 103 102 104 100 112 99 97 115 118 126 127 125 125 121 140 165